Torna al catalogo

OPS 4682 DEB

AttivoPO
NORAD 18479·DEBRIS·🇺🇸 United States

Lanciato Apr 3, 1965 da Vandenberg Space Force Base

Loading…

Prossimi Passaggi (prossime 24 ore)

TLE

AggiornatoSource: Space-Track

Epoca: Sep 14, 2026, 06:43 UTC

1 18479U 65027AC  26257.27994000 -.00000079  00000-0 -29706-3 0  9997
2 18479  90.2445   7.7874 0030895 185.2534 203.0539 12.97619787959317

Traccia OPS 4682 DEB in tempo reale con AllMySat

Download on the App Store